Terug naar catalogus

STARLINK-30255

ActiefCommunicatieVLEO
NORAD 57606·PAYLOAD·🇺🇸 United States

Gelanceerd Aug 11, 2023 vanaf Cape Canaveral Space Force Station

Loading…

Volgende Passages (komende 24 uur)

TLE

VersSource: CelesTrak SupGP

Epoch: Sep 14, 2026, 20:54 UTC

1 57606C 23119E   26257.87131944 -.00016052  00000+0 -58148-3 0  2570
2 57606  43.0002  93.0425 0001417 271.4063 349.7357 15.27582634    16

Volg STARLINK-30255 in realtime met AllMySat

Download on the App Store